Home   Weather   Veszprém   Past weeks
Flag for Hungary

Past Weather in Veszprém, Hungary — Yesterday and Last 2 Weeks

Now
68 °F

Broken clouds.


Feels Like: 68 °F
Forecast: 74 / 54 °F
Wind: 2 mph from North

Location: Ferenc Liszt International Airport

Current Time: May 24, 2019 at 3:59:42 pm

Latest Report: May 24, 2019 at 3:00 pm


Visibility: N/A

Pressure: 29.89 "Hg

Humidity: 69%

Dew Point: 57 °F

Location of VeszprémLocation

Past Weather in Veszprém — Graph

°F

Veszprém Temperature Yesterday

Maximum temperature yesterday: 63 °F (at 12:30 pm)
Minimum temperature yesterday: 54 °F (at 11:00 pm)
Average temperature yesterday: 58 °F

High & Low Weather Summary for the Past Weeks

 TemperatureHumidityPressure
High75 °F (May 19, 3:00 pm)100% (May 9, 3:00 pm)30.18 "Hg (May 9, 3:00 pm)
Low39 °F (May 17, 2:00 am)38% (May 12, 2:30 pm)29.59 "Hg (May 20, 2:30 am)
Average57 °F86%29.88 "Hg
* Reported May 9 3:00 pm — May 24 3:00 pm, Veszprém. Weather by CustomWeather, © 2019

Note: Actual official high and low records may vary slightly from our data, if they occured in-between our weather recording intervals... More about our weather records

Advertising

Veszprém Weather History for the Previous 24 Hours

Scroll right to see more
 ConditionsComfort  
Time TempWeatherWind HumidityBarometerVisibility
3:00 pm
Fri, May 24
68 °FBroken clouds.2 mph69%29.89 "HgN/A
2:30 pm66 °FBroken clouds.3 mph68%29.89 "HgN/A
2:00 pm64 °FSprinkles. Partly sunny.3 mph78%29.89 "HgN/A
1:30 pm63 °FSprinkles. Broken clouds.3 mph83%29.89 "HgN/A
1:20 pm64 °FRain showers. Broken clouds.6 mph73%29.89 "Hg5 mi
1:00 pm64 °FPartly sunny.7 mph73%29.89 "HgN/A
12:30 pm64 °FPartly sunny.1 mph73%29.89 "HgN/A
12:00 pm64 °FPartly sunny.5 mph78%29.92 "HgN/A
11:30 am64 °FPartly sunny.5 mph78%29.92 "HgN/A
11:00 am64 °FPartly sunny.2 mph83%29.92 "HgN/A
10:30 am61 °FScattered clouds.3 mph83%29.92 "HgN/A
10:00 am63 °FScattered clouds.3 mph83%29.92 "HgN/A
9:30 am61 °FScattered clouds.6 mph83%29.92 "HgN/A
9:00 am59 °FBroken clouds.3 mph94%29.92 "HgN/A
8:30 am59 °FPartly sunny.6 mph88%29.92 "HgN/A
8:00 am57 °FPartly sunny.8 mph94%29.92 "HgN/A
7:30 am55 °FPartly sunny.7 mph100%29.92 "HgN/A
7:00 am55 °FBroken clouds.7 mph100%29.92 "HgN/A
6:30 am54 °FPartly sunny.6 mph100%29.92 "HgN/A
6:00 am54 °FPartly sunny.6 mph100%29.92 "HgN/A
5:30 am54 °FPartly sunny.6 mph100%29.92 "HgN/A
5:00 am54 °FScattered showers. Broken clouds.6 mph100%29.92 "HgN/A
4:30 am54 °FScattered showers. Partly cloudy.7 mph100%29.92 "HgN/A
4:00 am54 °FLight rain. Partly cloudy.8 mph100%29.92 "HgN/A
3:30 am54 °FPartly cloudy.7 mph100%29.92 "HgN/A
3:00 am54 °FPartly cloudy.5 mph100%29.92 "HgN/A
2:30 am54 °FPartly cloudy.5 mph100%29.92 "HgN/A
2:00 am54 °FPassing clouds.5 mph100%29.92 "HgN/A
1:30 am55 °FPassing clouds.7 mph94%29.92 "HgN/A
1:00 am55 °FPassing clouds.6 mph94%29.92 "HgN/A
12:30 am54 °FClear.8 mph100%29.92 "Hg10 mi
12:00 am54 °FPassing clouds.5 mph100%29.92 "HgN/A
11:30 pm
Thu, May 23
55 °FClear.6 mph94%29.92 "Hg10 mi
11:00 pm54 °FClear.7 mph100%29.92 "Hg10 mi
10:30 pm55 °FClear.12 mph94%29.92 "Hg10 mi
10:00 pm55 °FClear.12 mph94%29.92 "Hg10 mi
9:30 pm55 °FClear.15 mph94%29.92 "Hg10 mi
9:00 pm57 °FClear.16 mph88%29.92 "Hg10 mi
8:30 pm57 °FClear.16 mph88%29.92 "Hg10 mi
8:00 pm57 °FScattered clouds.16 mph88%29.92 "HgN/A
7:30 pm57 °FScattered clouds.18 mph88%29.92 "HgN/A
7:00 pm59 °FScattered clouds.20 mph82%29.92 "HgN/A
6:30 pm59 °FScattered clouds.18 mph82%29.92 "HgN/A
6:00 pm61 °FPartly sunny.18 mph77%29.92 "HgN/A
5:30 pm61 °FBroken clouds.17 mph83%29.92 "HgN/A
5:00 pm61 °FPartly sunny.20 mph83%29.92 "HgN/A
4:30 pm61 °FPartly sunny.20 mph77%29.92 "HgN/A
4:00 pm61 °FPartly sunny.22 mph83%29.92 "HgN/A
3:30 pm61 °FPartly sunny.22 mph77%29.92 "HgN/A
3:00 pm61 °FPartly sunny.24 mph83%29.92 "HgN/A
Weather by CustomWeather, © 2019

See weather overview